Weather History for Rochester, MN

Change the Weather History Date:

Wednesday, August 7, 2013

  Actual Average Record
Temperature  
Mean Temperature 66 °F 70 °F  
Max Temperature 74 °F 80 °F 95 °F (1949)
Min Temperature 58 °F 60 °F 44 °F (1972)
Degree Days  
Heating Degree Days 0 1  
Month to date heating degree days 3 4  
Since 1 June heating degree days 86  
Since 1 July heating degree days 26 15  
Cooling Degree Days 1 6  
Month to date cooling degree days 14 42  
Year to date cooling degree days 399 413  
Since 1 June cooling degree days 369  
Growing Degree Days 16 (Base 50)    
Moisture  
Dew Point 58 °F    
Average Humidity 75    
Maximum Humidity 100    
Minimum Humidity 49    
Precipitation  
Precipitation T in 0.15 in 2.02 in (1991)
Month to date precipitation 0.54 1.02  
Year to date precipitation 33.44 20.69  
Snow  
Snow 0.00 in 0.00 in 0.00 in (2012)
Month to date snowfall 0.0 0.0  
Since 1 June snowfall 0.0  
Since 1 July snowfall 0.0 0.0  
Snow Depth 0.00 in    
Sea Level Pressure  
Sea Level Pressure 29.92 in    
Wind  
Wind Speed 9 mph (NNW)    
Max Wind Speed 16 mph    
Max Gust Speed 21 mph    
Visibility 7 miles    
Events Fog , Rain    
T = Trace of Precipitation, MM = Missing Value Source: NWS Daily Summary

Daily Weather History Graph

Daily Weather History Graph

Search for Another Location

Airport:

Trip Planner

Search our weather history database for the weather conditions in past years. The results will help you decide how hot, cold, wet, or windy it might be!

Date:

Astronomy

Aug. 07, 2013 Rise Set
Actual Time 6:05 AM CDT 8:25 PM CDT
Civil Twilight 5:33 AM CDT 8:57 PM CDT
Nautical Twilight 4:53 AM CDT 9:37 PM CDT
Astronomical Twilight 4:08 AM CDT 10:21 PM CDT
Moon 6:58 AM CDT (8/7) 8:27 PM CDT (8/7)
Length of Visible Light 15h 24m
Length of Day
14h 20m
New Moon, 1% of the Moon is Illuminated
Aug 7
New Moon
Aug 14
First Quarter
Aug 20
Full
Aug 28
Last Quarter
Sep 5
New

Hourly Weather History & Observations

Time (CDT) Temp. Dew Point Humidity Pressure Visibility Wind Dir Wind Speed Gust Speed Precip Events Conditions
12:54 AM 64.0 °F 61.0 °F 90% 29.81 in 10.0 mi SSW 6.9 mph - N/A   Clear
1:54 AM 63.0 °F 60.1 °F 90% 29.82 in 10.0 mi WNW 9.2 mph - N/A   Clear
2:54 AM 63.0 °F 57.9 °F 84% 29.81 in 10.0 mi WNW 8.1 mph - N/A   Clear
3:54 AM 62.1 °F 57.0 °F 84% 29.82 in 10.0 mi WNW 10.4 mph - N/A   Clear
4:54 AM 60.1 °F 57.0 °F 90% 29.83 in 10.0 mi NW 8.1 mph - N/A   Clear
5:37 AM 59.0 °F 57.2 °F 94% 29.85 in 10.0 mi NW 9.2 mph - N/A   Scattered Clouds
5:46 AM 60.8 °F 57.2 °F 88% 29.85 in 9.0 mi NW 8.1 mph - N/A   Mostly Cloudy
5:54 AM 60.1 °F 57.9 °F 93% 29.84 in 7.0 mi NW 9.2 mph - N/A   Mostly Cloudy
6:10 AM 60.8 °F 59.0 °F 94% 29.87 in 1.8 mi NW 10.4 mph - N/A   Overcast
6:20 AM 60.8 °F 59.0 °F 94% 29.88 in 1.0 mi NNW 11.5 mph - N/A   Overcast
6:28 AM 60.8 °F 59.0 °F 94% 29.88 in 0.5 mi NNW 10.4 mph - N/A Fog Fog
6:50 AM 60.8 °F 59.0 °F 94% 29.88 in 0.5 mi NNW 9.2 mph - N/A Fog Fog
6:54 AM 61.0 °F 60.1 °F 97% 29.86 in 0.5 mi NNW 10.4 mph - N/A Fog Fog
7:04 AM 60.8 °F 60.8 °F 100% 29.88 in 0.5 mi NNW 12.7 mph - N/A Fog Fog
7:54 AM 61.0 °F 60.1 °F 97% 29.89 in 0.5 mi NNW 9.2 mph - 0.00 in Rain Light Rain
8:02 AM 60.8 °F 60.8 °F 100% 29.91 in 1.2 mi NNW 9.2 mph - 0.00 in Rain Light Rain
8:15 AM 60.8 °F 60.8 °F 100% 29.91 in 1.5 mi North 12.7 mph - 0.00 in Rain Light Rain
8:27 AM 62.6 °F 60.8 °F 94% 29.91 in 2.5 mi North 10.4 mph - 0.00 in   Overcast
8:36 AM 62.6 °F 60.8 °F 94% 29.91 in 5.0 mi NNW 11.5 mph - 0.00 in   Overcast
8:54 AM 63.0 °F 60.1 °F 90% 29.91 in 7.0 mi NNW 12.7 mph - 0.00 in   Overcast
9:37 AM 64.4 °F 60.8 °F 88% 29.95 in 10.0 mi NNW 13.8 mph - N/A   Overcast
9:54 AM 64.0 °F 59.0 °F 84% 29.94 in 10.0 mi North 10.4 mph - N/A   Overcast
10:54 AM 66.9 °F 60.1 °F 79% 29.96 in 10.0 mi North 9.2 mph - N/A   Overcast
11:31 AM 69.8 °F 59.0 °F 68% 29.99 in 10.0 mi North 6.9 mph - N/A   Mostly Cloudy
11:42 AM 66.2 °F 60.8 °F 83% 29.99 in 10.0 mi NW 10.4 mph - N/A   Mostly Cloudy
11:51 AM 69.8 °F 59.0 °F 68% 29.99 in 10.0 mi NNW 10.4 mph - N/A   Mostly Cloudy
11:54 AM 70.0 °F 57.9 °F 65% 29.98 in 10.0 mi NNW 9.2 mph - N/A   Mostly Cloudy
12:54 PM 70.0 °F 59.0 °F 68% 29.98 in 10.0 mi NW 8.1 mph - N/A   Scattered Clouds
1:54 PM 72.0 °F 57.0 °F 59% 29.97 in 10.0 mi NW 12.7 mph - N/A   Mostly Cloudy
2:54 PM 72.0 °F 55.0 °F 55% 29.97 in 10.0 mi North 11.5 mph - N/A   Scattered Clouds
3:54 PM 73.0 °F 55.0 °F 53% 29.97 in 10.0 mi NW 10.4 mph - N/A   Partly Cloudy
4:54 PM 73.0 °F 53.1 °F 49% 29.97 in 10.0 mi North 11.5 mph - N/A   Clear
5:54 PM 72.0 °F 52.0 °F 49% 29.98 in 10.0 mi North 10.4 mph - N/A   Clear
6:54 PM 71.1 °F 52.0 °F 51% 29.99 in 10.0 mi North 10.4 mph - N/A   Clear
7:54 PM 66.9 °F 54.0 °F 63% 30.00 in 10.0 mi North 6.9 mph - N/A   Clear
8:54 PM 64.9 °F 52.0 °F 63% 30.01 in 10.0 mi North 3.5 mph - N/A   Clear
9:54 PM 63.0 °F 52.0 °F 67% 30.04 in 10.0 mi North 4.6 mph - N/A   Clear
10:54 PM 60.1 °F 52.0 °F 75% 30.05 in 10.0 mi NW 5.8 mph - N/A   Clear
11:54 PM 57.9 °F 52.0 °F 81% 30.06 in 10.0 mi NW 5.8 mph - N/A   Clear